ANZ28Y NZAA-NZCH

Flight info

Callsign ANZ28Y
Flight time N/A
Altitude 36000
Route IGBAT H384 NP H252 NS Y288 IPRAK
Aircraft A21N/M-SDE3FGHIRWY/LB1

Departure

Time 2026-05-05 19:42
Airport Auckland International Airport (NZAA)

Arrival

Time N/A
Airport Christchurch International Airport (NZCH)
Time Latitude Longitude Altitude Speed Heading
2026-05-05 19:16 -37.00727 174.79056 36 ft 0 kts 341°
2026-05-05 19:32 -37.00734 174.79057 36 ft 2 kts 341°
2026-05-05 19:32 -37.00747 174.79063 35 ft 1 kts 341°
2026-05-05 19:32 -37.00760 174.79069 35 ft 2 kts 341°
2026-05-05 19:33 -37.00769 174.79073 35 ft 2 kts 341°
2026-05-05 19:33 -37.00782 174.79083 35 ft 2 kts 305°
2026-05-05 19:33 -37.00788 174.79100 35 ft 2 kts 277°
2026-05-05 19:33 -37.00787 174.79117 35 ft 0 kts 253°
2026-05-05 19:34 -37.00785 174.79125 35 ft 1 kts 250°
2026-05-05 19:34 -37.00785 174.79126 35 ft 0 kts 250°
2026-05-05 19:36 -37.00787 174.79118 35 ft 2 kts 250°
2026-05-05 19:36 -37.00794 174.79094 34 ft 3 kts 243°
2026-05-05 19:36 -37.00811 174.79100 34 ft 4 kts 147°
2026-05-05 19:36 -37.00852 174.79115 32 ft 8 kts 188°
2026-05-05 19:37 -37.00894 174.79051 30 ft 11 kts 251°
2026-05-05 19:37 -37.00922 174.78946 28 ft 13 kts 251°
2026-05-05 19:37 -37.00956 174.78827 26 ft 15 kts 250°
2026-05-05 19:37 -37.00993 174.78694 24 ft 17 kts 250°
2026-05-05 19:38 -37.01034 174.78542 20 ft 19 kts 253°
2026-05-05 19:38 -37.01078 174.78380 17 ft 19 kts 250°
2026-05-05 19:38 -37.01121 174.78235 23 ft 15 kts 249°
2026-05-05 19:38 -37.01152 174.78120 28 ft 12 kts 253°
2026-05-05 19:39 -37.01179 174.78018 29 ft 12 kts 251°
2026-05-05 19:39 -37.01210 174.77907 28 ft 14 kts 251°
2026-05-05 19:39 -37.01245 174.77779 26 ft 16 kts 250°
2026-05-05 19:39 -37.01282 174.77647 27 ft 15 kts 250°
2026-05-05 19:40 -37.01315 174.77527 29 ft 14 kts 251°
2026-05-05 19:40 -37.01348 174.77405 28 ft 15 kts 251°
2026-05-05 19:40 -37.01384 174.77274 26 ft 16 kts 250°
2026-05-05 19:40 -37.01424 174.77142 26 ft 15 kts 238°
2026-05-05 19:41 -37.01517 174.77089 26 ft 15 kts 188°
2026-05-05 19:41 -37.01607 174.77115 25 ft 13 kts 111°
2026-05-05 19:41 -37.01582 174.77266 26 ft 37 kts 70°
2026-05-05 19:41 -37.01413 174.77867 32 ft 105 kts 70°
2026-05-05 19:42 -37.01110 174.78964 29 ft 161 kts 70°
2026-05-05 19:42 -37.00725 174.80394 349 ft 178 kts 71°
2026-05-05 19:42 -37.00329 174.81850 1071 ft 176 kts 68°
2026-05-05 19:42 -36.99925 174.83235 1829 ft 172 kts 66°
2026-05-05 19:43 -36.99524 174.84668 2336 ft 181 kts 66°
2026-05-05 19:43 -36.99081 174.86218 2717 ft 198 kts 67°
2026-05-05 19:43 -36.98610 174.87872 3225 ft 207 kts 67°
2026-05-05 19:43 -36.98192 174.89629 3778 ft 218 kts 82°
2026-05-05 19:44 -36.98528 174.91457 4517 ft 225 kts 118°
2026-05-05 19:44 -36.99685 174.92792 5197 ft 234 kts 153°
2026-05-05 19:44 -37.01207 174.93462 5853 ft 237 kts 161°
2026-05-05 19:44 -37.02860 174.93811 6335 ft 250 kts 186°
2026-05-05 19:45 -37.04588 174.93202 6707 ft 266 kts 202°
2026-05-05 19:45 -37.06336 174.92271 7077 ft 283 kts 204°
2026-05-05 19:45 -37.08182 174.91293 7654 ft 291 kts 203°
2026-05-05 19:45 -37.10046 174.90364 8357 ft 294 kts 202°
2026-05-05 19:46 -37.11968 174.89453 9056 ft 296 kts 201°
2026-05-05 19:46 -37.13917 174.88559 9715 ft 300 kts 201°
2026-05-05 19:46 -37.15898 174.87666 10333 ft 305 kts 200°
2026-05-05 19:46 -37.17916 174.86765 10675 ft 319 kts 200°
2026-05-05 19:47 -37.20063 174.85811 11018 ft 333 kts 200°
2026-05-05 19:47 -37.22274 174.84836 11596 ft 338 kts 200°
2026-05-05 19:47 -37.24491 174.83858 12252 ft 340 kts 200°
2026-05-05 19:47 -37.26734 174.82869 12882 ft 342 kts 200°
2026-05-05 19:48 -37.28981 174.81877 13486 ft 345 kts 200°
2026-05-05 19:48 -37.31243 174.80879 14078 ft 348 kts 200°
2026-05-05 19:48 -37.33541 174.79864 14671 ft 351 kts 200°
2026-05-05 19:48 -37.35830 174.78854 15244 ft 353 kts 200°
2026-05-05 19:49 -37.38149 174.77830 15793 ft 356 kts 200°
2026-05-05 19:49 -37.40488 174.76796 16331 ft 358 kts 201°
2026-05-05 19:49 -37.42869 174.75742 16882 ft 361 kts 201°
2026-05-05 19:49 -37.45233 174.74695 17423 ft 363 kts 201°
2026-05-05 19:50 -37.47592 174.73648 17931 ft 365 kts 201°
2026-05-05 19:50 -37.50003 174.72577 18432 ft 368 kts 201°
2026-05-05 19:50 -37.52414 174.71506 18926 ft 369 kts 201°
2026-05-05 19:50 -37.54828 174.70432 19447 ft 370 kts 201°
2026-05-05 19:51 -37.57257 174.69350 19963 ft 370 kts 201°
2026-05-05 19:51 -37.59703 174.68259 20447 ft 371 kts 201°
2026-05-05 19:51 -37.62108 174.67188 20903 ft 372 kts 201°
2026-05-05 19:51 -37.64566 174.66092 21368 ft 373 kts 201°
2026-05-05 19:52 -37.67013 174.64999 21826 ft 373 kts 201°
2026-05-05 19:52 -37.69450 174.63911 22269 ft 374 kts 201°
2026-05-05 19:52 -37.71909 174.62813 22679 ft 375 kts 201°
2026-05-05 19:52 -37.74348 174.61722 23059 ft 377 kts 201°
2026-05-05 19:53 -37.76849 174.60603 23468 ft 378 kts 201°
2026-05-05 19:53 -37.79306 174.59503 23879 ft 379 kts 201°
2026-05-05 19:53 -37.81784 174.58392 24273 ft 380 kts 201°
2026-05-05 19:53 -37.84297 174.57266 24666 ft 381 kts 201°
2026-05-05 19:54 -37.86795 174.56145 25037 ft 383 kts 201°
2026-05-05 19:54 -37.89303 174.55017 25405 ft 384 kts 201°
2026-05-05 19:54 -37.91828 174.53883 25769 ft 386 kts 201°
2026-05-05 19:54 -37.94354 174.52747 26113 ft 387 kts 201°
2026-05-05 19:55 -37.96889 174.51637 26451 ft 389 kts 199°
2026-05-05 19:55 -37.99484 174.50685 26789 ft 391 kts 196°
2026-05-05 19:55 -38.02148 174.49832 27135 ft 392 kts 195°
2026-05-05 19:55 -38.04778 174.49008 27461 ft 393 kts 195°
2026-05-05 19:56 -38.07447 174.48173 27780 ft 394 kts 195°
2026-05-05 19:56 -38.10096 174.47343 28096 ft 395 kts 195°
2026-05-05 19:56 -38.12747 174.46510 28401 ft 396 kts 195°
2026-05-05 19:56 -38.15443 174.45662 28714 ft 397 kts 195°
2026-05-05 19:57 -38.18104 174.44823 29016 ft 398 kts 195°
2026-05-05 19:57 -38.20776 174.43980 29277 ft 400 kts 195°
2026-05-05 19:57 -38.23505 174.43120 29552 ft 402 kts 195°
2026-05-05 19:57 -38.26225 174.42261 29823 ft 404 kts 195°
2026-05-05 19:58 -38.28982 174.41388 30104 ft 405 kts 195°
2026-05-05 19:58 -38.31691 174.40529 30353 ft 406 kts 195°
2026-05-05 19:58 -38.34436 174.39659 30586 ft 408 kts 195°
2026-05-05 19:58 -38.37187 174.38786 30814 ft 410 kts 195°
2026-05-05 19:59 -38.39956 174.37907 31041 ft 412 kts 195°
2026-05-05 19:59 -38.42739 174.37022 31272 ft 413 kts 195°
2026-05-05 19:59 -38.45578 174.36119 31486 ft 415 kts 195°
2026-05-05 19:59 -38.48367 174.35231 31704 ft 417 kts 195°
2026-05-05 20:00 -38.51200 174.34328 31920 ft 419 kts 196°
2026-05-05 20:00 -38.54022 174.33429 32124 ft 421 kts 196°
2026-05-05 20:00 -38.56853 174.32526 32323 ft 422 kts 196°
2026-05-05 20:00 -38.59739 174.31604 32508 ft 425 kts 196°
2026-05-05 20:01 -38.62574 174.30698 32716 ft 426 kts 195°
2026-05-05 20:01 -38.65444 174.29779 32989 ft 425 kts 195°
2026-05-05 20:01 -38.68342 174.28853 33269 ft 425 kts 196°
2026-05-05 20:01 -38.71195 174.27939 33528 ft 424 kts 195°
2026-05-05 20:02 -38.74062 174.27019 33774 ft 424 kts 196°
2026-05-05 20:02 -38.76917 174.26103 34001 ft 425 kts 196°
2026-05-05 20:02 -38.79790 174.25180 34222 ft 424 kts 196°
2026-05-05 20:02 -38.82627 174.24269 34439 ft 424 kts 196°
2026-05-05 20:03 -38.85490 174.23347 34643 ft 424 kts 196°
2026-05-05 20:03 -38.88344 174.22427 34795 ft 426 kts 196°
2026-05-05 20:03 -38.91224 174.21498 34947 ft 427 kts 196°
2026-05-05 20:03 -38.94113 174.20566 35122 ft 428 kts 195°
2026-05-05 20:04 -38.97013 174.19629 35279 ft 429 kts 195°
2026-05-05 20:04 -38.99912 174.18684 35422 ft 430 kts 197°
2026-05-05 20:04 -39.02778 174.17609 35561 ft 431 kts 198°
2026-05-05 20:04 -39.05640 174.16457 35701 ft 432 kts 199°
2026-05-05 20:05 -39.08494 174.15291 35855 ft 433 kts 199°
2026-05-05 20:05 -39.11367 174.14116 36022 ft 434 kts 199°
2026-05-05 20:05 -39.14274 174.12924 36179 ft 436 kts 199°
2026-05-05 20:05 -39.17161 174.11742 36338 ft 437 kts 199°
2026-05-05 20:06 -39.20048 174.10561 36362 ft 438 kts 199°
2026-05-05 20:06 -39.25863 174.08174 36374 ft 438 kts 199°
2026-05-05 20:07 -39.31659 174.05794 36379 ft 438 kts 199°
2026-05-05 20:07 -39.37480 174.03398 36387 ft 438 kts 199°
2026-05-05 20:08 -39.43264 174.01013 36376 ft 438 kts 199°
2026-05-05 20:08 -39.49056 173.98628 36375 ft 438 kts 199°
2026-05-05 20:09 -39.54843 173.96246 36372 ft 439 kts 199°
2026-05-05 20:09 -39.60730 173.93813 36369 ft 446 kts 199°
2026-05-05 20:10 -39.66647 173.91360 36366 ft 452 kts 199°
2026-05-05 20:10 -39.72694 173.88847 36356 ft 456 kts 199°
2026-05-05 20:11 -39.78712 173.86340 36360 ft 456 kts 199°
2026-05-05 20:11 -39.84756 173.83818 36362 ft 455 kts 199°
2026-05-05 20:12 -39.90749 173.81317 36366 ft 456 kts 199°
2026-05-05 20:12 -39.96802 173.78790 36358 ft 456 kts 199°
2026-05-05 20:13 -40.02811 173.76274 36357 ft 456 kts 199°
2026-05-05 20:13 -40.08842 173.73743 36358 ft 456 kts 199°
2026-05-05 20:14 -40.14862 173.71210 36352 ft 457 kts 199°
2026-05-05 20:14 -40.20914 173.68657 36360 ft 456 kts 199°
2026-05-05 20:15 -40.26978 173.66092 36351 ft 456 kts 199°
2026-05-05 20:15 -40.33007 173.63538 36356 ft 456 kts 199°
2026-05-05 20:16 -40.39041 173.60985 36356 ft 456 kts 199°
2026-05-05 20:16 -40.45038 173.58443 36349 ft 456 kts 199°
2026-05-05 20:17 -40.51076 173.55875 36347 ft 456 kts 199°
2026-05-05 20:17 -40.57126 173.53294 36346 ft 456 kts 200°
2026-05-05 20:18 -40.63137 173.50723 36343 ft 457 kts 200°
2026-05-05 20:18 -40.69200 173.48131 36336 ft 457 kts 200°
2026-05-05 20:19 -40.75229 173.45543 36345 ft 457 kts 200°
2026-05-05 20:19 -40.81249 173.42950 36344 ft 457 kts 199°
2026-05-05 20:20 -40.87317 173.40341 36346 ft 458 kts 199°
2026-05-05 20:20 -40.93354 173.37744 36348 ft 457 kts 200°
2026-05-05 20:21 -40.99403 173.35135 36351 ft 457 kts 200°
2026-05-05 20:21 -41.05421 173.32529 36345 ft 457 kts 200°
2026-05-05 20:22 -41.11437 173.29921 36339 ft 446 kts 200°
2026-05-05 20:22 -41.17264 173.27388 36351 ft 440 kts 200°
2026-05-05 20:23 -41.23086 173.24850 36344 ft 441 kts 200°
2026-05-05 20:23 -41.28916 173.22305 36338 ft 442 kts 200°
2026-05-05 20:24 -41.34790 173.19966 36324 ft 442 kts 198°
2026-05-05 20:24 -41.40707 173.17714 36327 ft 442 kts 198°
2026-05-05 20:25 -41.46594 173.15463 36326 ft 442 kts 198°
2026-05-05 20:25 -41.52532 173.13181 36330 ft 442 kts 198°
2026-05-05 20:26 -41.58403 173.10918 36316 ft 442 kts 198°
2026-05-05 20:26 -41.61353 173.09779 36029 ft 444 kts 198°
2026-05-05 20:26 -41.64326 173.08629 35495 ft 443 kts 198°
2026-05-05 20:26 -41.67262 173.07494 34902 ft 444 kts 198°
2026-05-05 20:27 -41.70219 173.06348 34293 ft 445 kts 198°
2026-05-05 20:27 -41.73211 173.05188 33585 ft 445 kts 198°
2026-05-05 20:27 -41.76164 173.04044 32897 ft 445 kts 198°
2026-05-05 20:27 -41.79145 173.02887 32214 ft 444 kts 198°
2026-05-05 20:28 -41.82091 173.01744 31760 ft 437 kts 198°
2026-05-05 20:28 -41.84971 173.00626 31340 ft 431 kts 198°
2026-05-05 20:28 -41.87809 172.99522 30920 ft 425 kts 198°
2026-05-05 20:28 -41.90638 172.98422 30496 ft 419 kts 198°
2026-05-05 20:29 -41.93418 172.97337 30067 ft 414 kts 198°
2026-05-05 20:29 -41.96149 172.96272 29635 ft 409 kts 198°
2026-05-05 20:29 -41.98874 172.95206 29180 ft 405 kts 198°
2026-05-05 20:29 -42.01552 172.94157 28728 ft 401 kts 198°
2026-05-05 20:30 -42.04213 172.93117 28282 ft 398 kts 198°
2026-05-05 20:30 -42.06848 172.92084 27835 ft 395 kts 198°
2026-05-05 20:30 -42.09483 172.91049 27394 ft 392 kts 198°
2026-05-05 20:30 -42.12077 172.90030 26951 ft 389 kts 198°
2026-05-05 20:31 -42.14651 172.89020 26510 ft 386 kts 198°
2026-05-05 20:31 -42.17231 172.88007 25976 ft 385 kts 198°
2026-05-05 20:31 -42.19814 172.86989 25075 ft 394 kts 198°
2026-05-05 20:31 -42.22446 172.85950 24144 ft 402 kts 198°
2026-05-05 20:32 -42.25113 172.84898 23444 ft 403 kts 198°
2026-05-05 20:32 -42.27831 172.83826 22893 ft 401 kts 198°
2026-05-05 20:32 -42.30473 172.82782 22367 ft 399 kts 198°
2026-05-05 20:32 -42.33127 172.81737 21627 ft 393 kts 198°
2026-05-05 20:33 -42.35714 172.80714 20627 ft 392 kts 198°
2026-05-05 20:33 -42.38298 172.79691 19623 ft 390 kts 198°
2026-05-05 20:33 -42.40885 172.78665 18650 ft 388 kts 198°
2026-05-05 20:33 -42.43479 172.77635 17885 ft 391 kts 198°
2026-05-05 20:34 -42.46085 172.76602 17371 ft 388 kts 198°
2026-05-05 20:34 -42.48668 172.75578 16886 ft 385 kts 198°
2026-05-05 20:34 -42.51217 172.74567 16416 ft 383 kts 198°
2026-05-05 20:34 -42.53766 172.73552 15943 ft 381 kts 198°
2026-05-05 20:35 -42.56308 172.72540 15473 ft 378 kts 198°
2026-05-05 20:35 -42.58818 172.71539 14983 ft 377 kts 198°
2026-05-05 20:35 -42.61305 172.70546 14484 ft 375 kts 198°
2026-05-05 20:35 -42.63785 172.69556 14003 ft 373 kts 198°
2026-05-05 20:36 -42.66277 172.68559 13516 ft 371 kts 198°
2026-05-05 20:36 -42.68755 172.67569 13053 ft 368 kts 198°